sat.trackr.live / text

‹ back to catalog

STARLINK-30120

NORAD 56824 · 2023-079B

PAYLOAD ACTIVE UNKNOWN

§ Identity

Operator
Country
US
Launch date
2023-06-04
Launch site
AFETR
Launch vehicle
Mass (kg)
RCS (m²)

Purposes: comms

External: N2YO · Heavens-Above · Gunter

§ Orbital elements

Epoch: 2026-05-25T03:04:15.356064Z

Period
94.27 min
Inclination
43.0037°
Eccentricity
0.0001146
Mean motion
15.27560785 rev/d
Perigee alt
482.3 km
Apogee alt
483.9 km
Semi-major
6,861.2 km
B*
-9.8081e-5
RAAN
35.7903°
Arg perigee
271.7228°
Mean anomaly
88.3492°
Rev number
16,489

§ Raw data

STARLINK-301201 56824U 23079B   26145.12795551 -.00002958  00000+0 -98081-4 0  99942 56824  43.0037  35.7903 0001146 271.7228  88.3492 15.27560785164890

JSON: /api/v1/satellites/56824 · /tle

For live sub-satellite position, see the globe view (requires WebGL).

§ Visibility from observer

Set your observer location to see the next 7 days of passes ≥ 10°. The values pass through the URL so the page stays shareable.

No JS? Fill the form by hand. The geolocation button needs JavaScript.